| time (UTC) | temp F | wind direction | speed MPH | gust MPH | rain 1hr in | rain 24hr in | rain mn in | humidity % | barometer mb |
| 20260508153603 | 57 | 247 | 2.0 | 7.0 | 0.00 | 0.05 | 0.01 | 52 | 1014.2 |
| 20260508152704 | 57 | 254 | 2.0 | 7.0 | 0.00 | 0.05 | 0.01 | 52 | 1013.9 |
| 20260508151824 | 56 | 288 | 3.0 | 8.0 | 0.00 | 0.05 | 0.01 | 54 | 1014.0 |
| 20260508150925 | 56 | 319 | 3.0 | 8.0 | 0.00 | 0.05 | 0.01 | 54 | 1013.8 |
| 20260508150004 | 56 | 329 | 3.0 | 10.0 | 0.00 | 0.05 | 0.01 | 53 | 1013.9 |
| 20260508145403 | 56 | 302 | 2.0 | 6.0 | 0.00 | 0.05 | 0.01 | 53 | 1013.7 |
| 20260508144504 | 57 | 276 | 1.0 | 6.0 | 0.00 | 0.05 | 0.01 | 54 | 1013.7 |
| 20260508143604 | 58 | 319 | 3.0 | 13.0 | 0.00 | 0.05 | 0.01 | 49 | 1013.8 |
| 20260508142724 | 58 | 206 | 2.0 | 9.0 | 0.00 | 0.05 | 0.01 | 52 | 1013.6 |
| 20260508141824 | 58 | 240 | 2.0 | 7.0 | 0.00 | 0.05 | 0.01 | 53 | 1013.7 |
| 20260508140904 | 57 | 280 | 2.0 | 3.0 | 0.00 | 0.05 | 0.01 | 54 | 1013.7 |
| 20260508140004 | 57 | 285 | 2.0 | 9.0 | 0.00 | 0.05 | 0.01 | 54 | 1013.6 |
| 20260508135403 | 57 | 268 | 1.0 | 4.0 | 0.00 | 0.05 | 0.01 | 54 | 1013.5 |
| 20260508134525 | 58 | 273 | 2.0 | 7.0 | 0.00 | 0.05 | 0.01 | 54 | 1013.5 |
| 20260508133603 | 58 | 235 | 2.0 | 6.0 | 0.00 | 0.05 | 0.01 | 54 | 1013.5 |
| 20260508132703 | 58 | 284 | 2.0 | 6.0 | 0.00 | 0.05 | 0.01 | 55 | 1013.5 |
| 20260508131804 | 59 | 254 | 2.0 | 6.0 | 0.00 | 0.05 | 0.01 | 58 | 1013.4 |
| 20260508130903 | 58 | 224 | 2.0 | 7.0 | 0.00 | 0.05 | 0.01 | 58 | 1013.2 |
| 20260508130003 | 57 | 278 | 2.0 | 7.0 | 0.01 | 0.05 | 0.01 | 56 | 1013.3 |
| 20260508125403 | 57 | 250 | 3.0 | 10.0 | 0.01 | 0.05 | 0.01 | 57 | 1013.3 |
| 20260508124503 | 57 | 213 | 3.0 | 10.0 | 0.01 | 0.05 | 0.01 | 58 | 1013.2 |
| 20260508123604 | 57 | 269 | 2.0 | 4.0 | 0.01 | 0.05 | 0.01 | 57 | 1013.1 |
| 20260508122705 | 56 | 258 | 3.0 | 7.0 | 0.01 | 0.05 | 0.01 | 58 | 1013.2 |
| 20260508121804 | 56 | 221 | 3.0 | 7.0 | 0.01 | 0.05 | 0.01 | 58 | 1013.2 |
| 20260508120903 | 57 | 224 | 2.0 | 6.0 | 0.01 | 0.05 | 0.01 | 58 | 1013.2 |
| 20260508120005 | 55 | 272 | 1.0 | 6.0 | 0.00 | 0.04 | 0.00 | 62 | 1013.2 |
| 20260508115404 | 55 | 253 | 3.0 | 9.0 | 0.00 | 0.04 | 0.00 | 62 | 1013.2 |
| 20260508114506 | 55 | 220 | 5.0 | 9.0 | 0.00 | 0.04 | 0.00 | 59 | 1013.0 |
| 20260508113603 | 55 | 196 | 3.0 | 8.0 | 0.00 | 0.04 | 0.00 | 61 | 1013.0 |
| 20260508112704 | 55 | 198 | 4.0 | 8.0 | 0.00 | 0.04 | 0.00 | 61 | 1012.9 |
| 20260508111803 | 54 | 245 | 3.0 | 7.0 | 0.00 | 0.04 | 0.00 | 59 | 1012.8 |
| 20260508110904 | 55 | 223 | 3.0 | 9.0 | 0.00 | 0.04 | 0.00 | 61 | 1012.9 |
| 20260508110003 | 55 | 202 | 3.0 | 6.0 | 0.00 | 0.04 | 0.00 | 67 | 1012.8 |
| 20260508105404 | 53 | 220 | 3.0 | 7.0 | 0.00 | 0.04 | 0.00 | 70 | 1012.8 |
| 20260508104503 | 53 | 231 | 2.0 | 7.0 | 0.00 | 0.04 | 0.00 | 70 | 1012.8 |
| 20260508103624 | 53 | 253 | 2.0 | 6.0 | 0.00 | 0.04 | 0.00 | 73 | 1012.8 |
| 20260508102705 | 53 | 218 | 2.0 | 6.0 | 0.00 | 0.04 | 0.00 | 76 | 1012.7 |
| 20260508101803 | 52 | 226 | 2.0 | 6.0 | 0.00 | 0.04 | 0.00 | 76 | 1012.6 |
| 20260508100924 | 51 | 239 | 2.0 | 6.0 | 0.00 | 0.04 | 0.00 | 77 | 1012.5 |
| 20260508100004 | 50 | 233 | 2.0 | 4.0 | 0.00 | 0.04 | 0.00 | 80 | 1012.6 |
| 20260508095403 | 50 | 230 | 1.0 | 4.0 | 0.00 | 0.04 | 0.00 | 81 | 1012.6 |
| 20260508094503 | 49 | 232 | 2.0 | 8.0 | 0.00 | 0.04 | 0.00 | 80 | 1012.7 |
| 20260508093625 | 50 | 214 | 4.0 | 10.0 | 0.00 | 0.04 | 0.00 | 77 | 1012.4 |
| 20260508092724 | 51 | 208 | 5.0 | 11.0 | 0.00 | 0.04 | 0.00 | 78 | 1012.1 |
| 20260508091803 | 50 | 215 | 6.0 | 13.0 | 0.00 | 0.04 | 0.00 | 77 | 1012.2 |
| 20260508090925 | 50 | 209 | 7.0 | 13.0 | 0.00 | 0.04 | 0.00 | 77 | 1011.9 |
| 20260508090004 | 50 | 207 | 5.0 | 10.0 | 0.00 | 0.04 | 0.00 | 80 | 1011.9 |
| 20260508085403 | 50 | 214 | 4.0 | 10.0 | 0.00 | 0.04 | 0.00 | 79 | 1011.8 |
| 20260508084505 | 49 | 209 | 3.0 | 8.0 | 0.00 | 0.04 | 0.00 | 80 | 1011.9 |
| 20260508083604 | 49 | 217 | 3.0 | 4.0 | 0.00 | 0.04 | 0.00 | 80 | 1011.7 |
| 20260508082703 | 49 | 221 | 2.0 | 6.0 | 0.00 | 0.04 | 0.00 | 80 | 1011.8 |
| 20260508081803 | 48 | 231 | 3.0 | 6.0 | 0.00 | 0.04 | 0.00 | 81 | 1011.7 |
| 20260508080903 | 48 | 203 | 2.0 | 6.0 | 0.00 | 0.04 | 0.00 | 81 | 1011.5 |
| 20260508080025 | 48 | 266 | 0.0 | 4.0 | 0.00 | 0.04 | 0.00 | 82 | 1011.7 |
| 20260508075403 | 48 | 259 | 1.0 | 6.0 | 0.00 | 0.04 | 0.00 | 83 | 1011.6 |
| 20260508074504 | 48 | 230 | 1.0 | 6.0 | 0.00 | 0.04 | 0.00 | 83 | 1011.3 |
| 20260508073604 | 48 | 287 | 1.0 | 3.0 | 0.00 | 0.04 | 0.00 | 86 | 1011.2 |
| 20260508072704 | 48 | 274 | 0.0 | 3.0 | 0.00 | 0.04 | 0.00 | 86 | 1011.3 |
| 20260508071803 | 48 | 241 | 0.0 | 2.0 | 0.00 | 0.04 | 0.00 | 88 | 1010.9 |
| 20260508070926 | 48 | 260 | 0.0 | 2.0 | 0.00 | 0.04 | 0.00 | 88 | 1011.1 |
| 20260508070004 | 48 | 258 | 1.0 | 3.0 | 0.00 | 0.04 | 0.00 | 89 | 1010.8 |
| 20260508065404 | 47 | 235 | 1.0 | 3.0 | 0.00 | 0.04 | 0.00 | 89 | 1010.8 |
| 20260508064504 | 47 | 233 | 2.0 | 6.0 | 0.00 | 0.04 | 0.00 | 89 | 1010.8 |
| 20260508063606 | 47 | 219 | 2.0 | 6.0 | 0.00 | 0.04 | 0.00 | 89 | 1010.7 |
| 20260508062703 | 47 | 215 | 1.0 | 3.0 | 0.00 | 0.04 | 0.00 | 90 | 1010.5 |
| 20260508061803 | 46 | 240 | 1.0 | 3.0 | 0.00 | 0.04 | 0.00 | 91 | 1010.3 |
| 20260508060903 | 46 | 224 | 2.0 | 3.0 | 0.00 | 0.04 | 0.00 | 91 | 1010.5 |
| 20260508060025 | 46 | 217 | 2.0 | 6.0 | 0.00 | 0.04 | 0.00 | 91 | 1010.3 |
| 20260508055404 | 46 | 229 | 2.0 | 6.0 | 0.00 | 0.04 | 0.00 | 91 | 1010.3 |
| 20260508054504 | 46 | 232 | 2.0 | 4.0 | 0.00 | 0.04 | 0.00 | 91 | 1010.2 |
| 20260508053603 | 46 | 222 | 2.0 | 4.0 | 0.00 | 0.04 | 0.00 | 91 | 1010.0 |
| 20260508052703 | 46 | 222 | 2.0 | 4.0 | 0.00 | 0.04 | 0.00 | 91 | 1009.8 |
| 20260508051804 | 46 | 231 | 1.0 | 3.0 | 0.00 | 0.04 | 0.00 | 92 | 1009.8 |
| 20260508050925 | 46 | 233 | 2.0 | 6.0 | 0.00 | 0.04 | 0.00 | 91 | 1009.7 |
| 20260508050026 | 46 | 227 | 2.0 | 6.0 | 0.00 | 0.04 | 0.00 | 91 | 1009.6 |
| 20260508045403 | 46 | 218 | 1.0 | 4.0 | 0.00 | 0.04 | 0.00 | 91 | 1009.5 |
| 20260508044504 | 46 | 225 | 2.0 | 4.0 | 0.00 | 0.04 | 0.00 | 91 | 1009.8 |
| 20260508043603 | 46 | 220 | 2.0 | 4.0 | 0.00 | 0.04 | 0.00 | 91 | 1009.7 |
| 20260508042704 | 46 | 224 | 1.0 | 2.0 | 0.00 | 0.04 | 0.00 | 90 | 1009.4 |
| 20260508041803 | 46 | 219 | 2.0 | 4.0 | 0.00 | 0.04 | 0.00 | 91 | 1009.2 |
| 20260508040903 | 46 | 218 | 1.0 | 4.0 | 0.00 | 0.04 | 0.00 | 90 | 1009.2 |
| 20260508040006 | 46 | 245 | 1.0 | 3.0 | 0.00 | 0.04 | 0.00 | 90 | 1009.1 |
| 20260508035403 | 46 | 242 | 1.0 | 3.0 | 0.00 | 0.04 | 0.00 | 90 | 1009.1 |
| 20260508034504 | 46 | 253 | 1.0 | 3.0 | 0.00 | 0.04 | 0.00 | 91 | 1009.1 |
| 20260508033603 | 46 | 333 | 0.0 | 1.0 | 0.00 | 0.04 | 0.00 | 91 | 1009.1 |
| 20260508032704 | 46 | 270 | 0.0 | 2.0 | 0.00 | 0.04 | 0.00 | 91 | 1009.0 |
| 20260508031804 | 46 | 228 | 1.0 | 4.0 | 0.00 | 0.04 | 0.00 | 91 | 1009.2 |
| 20260508030904 | 46 | 234 | 2.0 | 6.0 | 0.00 | 0.04 | 0.00 | 91 | 1009.0 |
| 20260508030004 | 46 | 289 | 1.0 | 4.0 | 0.00 | 0.04 | 0.00 | 92 | 1009.1 |
| 20260508025403 | 46 | 323 | 1.0 | 4.0 | 0.00 | 0.04 | 0.00 | 91 | 1008.9 |
| 20260508024504 | 46 | 333 | 1.0 | 3.0 | 0.00 | 0.04 | 0.00 | 92 | 1008.8 |
| 20260508023603 | 46 | 338 | 1.0 | 3.0 | 0.00 | 0.04 | 0.00 | 92 | 1008.6 |
| 20260508022703 | 47 | 253 | 0.0 | 1.0 | 0.00 | 0.04 | 0.00 | 93 | 1008.9 |
| 20260508021824 | 46 | 231 | 1.0 | 3.0 | 0.00 | 0.04 | 0.00 | 93 | 1008.8 |
| 20260508020903 | 46 | 227 | 1.0 | 3.0 | 0.00 | 0.04 | 0.00 | 93 | 1008.9 |
| 20260508020004 | 47 | 212 | 1.0 | 2.0 | 0.00 | 0.04 | 0.00 | 93 | 1008.6 |
| 20260508015403 | 47 | 228 | 1.0 | 4.0 | 0.00 | 0.04 | 0.00 | 93 | 1008.7 |
| 20260508014504 | 47 | 231 | 1.0 | 4.0 | 0.00 | 0.04 | 0.00 | 93 | 1008.6 |
| 20260508013604 | 47 | 244 | 0.0 | 3.0 | 0.00 | 0.04 | 0.00 | 93 | 1008.8 |
| 20260508012704 | 47 | 240 | 1.0 | 4.0 | 0.00 | 0.04 | 0.00 | 93 | 1008.7 |
| 20260508011803 | 47 | 232 | 2.0 | 6.0 | 0.00 | 0.04 | 0.00 | 93 | 1008.5 |
| 20260508010903 | 47 | 220 | 3.0 | 8.0 | 0.00 | 0.04 | 0.00 | 93 | 1008.5 |
| 20260508010003 | 47 | 218 | 3.0 | 7.0 | 0.00 | 0.04 | 0.00 | 94 | 1008.5 |
| 20260508005424 | 47 | 224 | 3.0 | 7.0 | 0.00 | 0.04 | 0.00 | 94 | 1008.4 |
| 20260508004503 | 47 | 215 | 3.0 | 7.0 | 0.00 | 0.04 | 0.00 | 94 | 1008.3 |
| 20260508003605 | 47 | 229 | 3.0 | 6.0 | 0.00 | 0.04 | 0.00 | 94 | 1008.3 |
| 20260508002703 | 47 | 219 | 4.0 | 7.0 | 0.00 | 0.04 | 0.00 | 94 | 1008.3 |
| 20260508001804 | 47 | 220 | 4.0 | 8.0 | 0.00 | 0.04 | 0.00 | 94 | 1008.4 |
| 20260508000904 | 47 | 219 | 3.0 | 7.0 | 0.00 | 0.04 | 0.00 | 94 | 1008.4 |
| 20260508000004 | 47 | 207 | 2.0 | 3.0 | 0.00 | 0.04 | 0.00 | 93 | 1008.4 |
| 20260507235426 | 47 | 202 | 3.0 | 3.0 | 0.00 | 0.04 | 0.00 | 93 | 1008.3 |
| 20260507234505 | 47 | 199 | 3.0 | 4.0 | 0.00 | 0.04 | 0.00 | 93 | 1008.3 |
| 20260507233603 | 47 | 203 | 4.0 | 7.0 | 0.00 | 0.04 | 0.00 | 93 | 1008.3 |
| 20260507232705 | 47 | 229 | 5.0 | 8.0 | 0.01 | 0.04 | 0.00 | 94 | 1008.2 |
| 20260507231803 | 47 | 222 | 5.0 | 10.0 | 0.01 | 0.04 | 0.00 | 93 | 1008.2 |
| 20260507230904 | 47 | 205 | 5.0 | 9.0 | 0.03 | 0.04 | 0.00 | 92 | 1008.4 |
| 20260507230004 | 47 | 200 | 5.0 | 7.0 | 0.04 | 0.04 | 0.00 | 92 | 1008.2 |
| 20260507225425 | 47 | 200 | 4.0 | 7.0 | 0.04 | 0.04 | 0.04 | 92 | 1008.1 |
| 20260507224504 | 47 | 204 | 5.0 | 8.0 | 0.04 | 0.04 | 0.04 | 92 | 1008.0 |
| 20260507223604 | 47 | 204 | 6.0 | 11.0 | 0.04 | 0.04 | 0.04 | 93 | 1008.0 |
| 20260507222704 | 47 | 213 | 9.0 | 15.0 | 0.03 | 0.03 | 0.03 | 92 | 1008.1 |
| 20260507221805 | 47 | 225 | 9.0 | 15.0 | 0.03 | 0.03 | 0.03 | 92 | 1008.1 |
| 20260507220903 | 47 | 218 | 7.0 | 13.0 | 0.01 | 0.01 | 0.01 | 90 | 1008.1 |
| 20260507220025 | 48 | 206 | 7.0 | 13.0 | 0.00 | 0.00 | 0.01 | 90 | 1007.9 |
| 20260507215404 | 48 | 211 | 6.0 | 11.0 | 0.00 | 0.00 | 0.00 | 89 | 1007.9 |
| 20260507214504 | 48 | 213 | 7.0 | 14.0 | 0.00 | 0.00 | 0.00 | 89 | 1007.9 |
| 20260507213603 | 48 | 209 | 5.0 | 10.0 | 0.00 | 0.00 | 0.00 | 89 | 1007.9 |
| 20260507212703 | 48 | 222 | 6.0 | 10.0 | 0.00 | 0.00 | 0.00 | 89 | 1007.8 |
| 20260507211803 | 48 | 217 | 7.0 | 11.0 | 0.00 | 0.00 | 0.00 | 89 | 1007.7 |
| 20260507210903 | 48 | 216 | 7.0 | 11.0 | 0.00 | 0.00 | 0.00 | 90 | 1008.0 |
| 20260507210004 | 48 | 212 | 7.0 | 13.0 | 0.00 | 0.00 | 0.00 | 90 | 1007.9 |
| 20260507205424 | 48 | 211 | 7.0 | 14.0 | 0.00 | 0.00 | 0.00 | 90 | 1007.9 |
| 20260507204504 | 48 | 215 | 7.0 | 14.0 | 0.00 | 0.00 | 0.00 | 90 | 1007.8 |
| 20260507203605 | 48 | 204 | 6.0 | 10.0 | 0.00 | 0.00 | 0.00 | 89 | 1007.7 |
| 20260507202703 | 48 | 207 | 8.0 | 13.0 | 0.00 | 0.00 | 0.00 | 89 | 1007.9 |
| 20260507201805 | 48 | 201 | 8.0 | 17.0 | 0.00 | 0.00 | 0.00 | 88 | 1007.7 |
| 20260507200904 | 48 | 211 | 10.0 | 17.0 | 0.00 | 0.00 | 0.00 | 88 | 1007.7 |
| 20260507200027 | 49 | 217 | 10.0 | 17.0 | 0.00 | 0.00 | 0.00 | 88 | 1007.6 |
| 20260507195403 | 49 | 220 | 9.0 | 15.0 | 0.00 | 0.00 | 0.00 | 87 | 1007.6 |
| 20260507194503 | 49 | 225 | 8.0 | 15.0 | 0.00 | 0.00 | 0.00 | 85 | 1007.4 |
| 20260507193603 | 49 | 213 | 9.0 | 15.0 | 0.00 | 0.00 | 0.00 | 85 | 1007.5 |
| 20260507192726 | 49 | 221 | 10.0 | 16.0 | 0.00 | 0.00 | 0.00 | 84 | 1007.5 |
| 20260507191804 | 49 | 217 | 9.0 | 15.0 | 0.00 | 0.00 | 0.00 | 83 | 1007.4 |
| 20260507190903 | 49 | 222 | 9.0 | 14.0 | 0.00 | 0.00 | 0.00 | 82 | 1007.2 |
| 20260507190005 | 49 | 217 | 8.0 | 15.0 | 0.00 | 0.00 | 0.00 | 82 | 1007.3 |
| 20260507185403 | 49 | 211 | 9.0 | 15.0 | 0.00 | 0.00 | 0.00 | 81 | 1007.3 |
| 20260507184504 | 49 | 213 | 9.0 | 14.0 | 0.00 | 0.00 | 0.00 | 81 | 1007.2 |
| 20260507183604 | 50 | 211 | 9.0 | 17.0 | 0.00 | 0.00 | 0.00 | 80 | 1007.2 |
| 20260507182705 | 50 | 207 | 8.0 | 14.0 | 0.00 | 0.00 | 0.00 | 78 | 1007.5 |
| 20260507181803 | 51 | 207 | 9.0 | 15.0 | 0.00 | 0.00 | 0.00 | 75 | 1007.3 |
| 20260507180925 | 51 | 206 | 8.0 | 13.0 | 0.00 | 0.00 | 0.00 | 73 | 1007.3 |
| 20260507180004 | 52 | 208 | 8.0 | 14.0 | 0.00 | 0.00 | 0.00 | 70 | 1007.2 |
| 20260507175404 | 53 | 203 | 7.0 | 13.0 | 0.00 | 0.00 | 0.00 | 69 | 1007.3 |
| 20260507174504 | 53 | 198 | 6.0 | 9.0 | 0.00 | 0.00 | 0.00 | 71 | 1007.1 |
| 20260507173603 | 53 | 196 | 7.0 | 15.0 | 0.00 | 0.00 | 0.00 | 71 | 1007.5 |
| 20260507172703 | 53 | 211 | 8.0 | 15.0 | 0.00 | 0.00 | 0.00 | 70 | 1007.3 |
| 20260507171804 | 52 | 221 | 8.0 | 14.0 | 0.00 | 0.00 | 0.00 | 70 | 1007.5 |
| 20260507170925 | 53 | 220 | 8.0 | 15.0 | 0.00 | 0.00 | 0.00 | 70 | 1007.4 |
| 20260507170005 | 51 | 221 | 9.0 | 15.0 | 0.00 | 0.00 | 0.00 | 73 | 1007.4 |
| 20260507165403 | 51 | 213 | 9.0 | 15.0 | 0.00 | 0.00 | 0.00 | 71 | 1007.4 |
| 20260507164503 | 53 | 206 | 10.0 | 16.0 | 0.00 | 0.00 | 0.00 | 69 | 1007.4 |
| 20260507163603 | 54 | 210 | 10.0 | 18.0 | 0.00 | 0.00 | 0.00 | 63 | 1007.4 |
| 20260507162703 | 55 | 185 | 10.0 | 17.0 | 0.00 | 0.00 | 0.00 | 61 | 1007.4 |
| 20260507161803 | 56 | 207 | 10.0 | 19.0 | 0.00 | 0.00 | 0.00 | 62 | 1007.4 |
| 20260507160903 | 54 | 215 | 9.0 | 19.0 | 0.00 | 0.00 | 0.00 | 64 | 1007.3 |
| 20260507160004 | 54 | 210 | 9.0 | 15.0 | 0.00 | 0.00 | 0.00 | 66 | 1007.5 |
| 20260507155424 | 53 | 198 | 9.0 | 18.0 | 0.00 | 0.00 | 0.00 | 66 | 1007.4 |
| 20260507154504 | 53 | 195 | 9.0 | 15.0 | 0.00 | 0.00 | 0.00 | 68 | 1007.5 |